Regional Weather Roundup
Issued by NWS

Home | Current Version | Previous Version | Text Only | Print | Product List | Glossary On
Versions: 1 2 3 4 5 6 7 8 9 10 11 12 13 14 15 16 17 18 19 20 21 22 23 24 25 26 27 28 29 30 31 32 33 34 35 36 37 38 39 40 41 42 43 44 45 46 47 48 49 50
000
ASUS43 KTOP 110008
RWRKS

WEATHER ROUNDUP FOR KANSAS
NATIONAL WEATHER SERVICE GOODLAND KS
600 PM CST SAT DEC 10 2016

NOTE:  "FAIR" INDICATES FEW OR NO CLOUDS BELOW 12,000 FEET WITH NO
SIGNIFICANT WEATHER AND/OR OBSTRUCTIONS TO VISIBILITY.

KSZ001>006-013>018-027>032-041>047-110100-
NORTHWEST KANSAS

CITY           SKY/WX    TMP DP  RH WIND       PRES   REMARKS
GOODLAND       CLOUDY    32  26  78 SE13      29.75F WCI  22
6HR MIN TEMP:  31; 6HR MAX TEMP:  38;

HAYS           CLOUDY    32  24  72 SE9       29.86F
HILL CITY      CLOUDY    35  24  64 SE5       29.86F
6HR MIN TEMP:  33; 6HR MAX TEMP:  39;

RUSSELL        CLOUDY    34  25  69 S12       29.87F WCI  25
6HR MIN TEMP:  34; 6HR MAX TEMP:  41;

$$

KSZ061>065-074>080-084>089-110100-
SOUTHWEST KANSAS

CITY           SKY/WX    TMP DP  RH WIND       PRES   REMARKS
DODGE CITY     CLOUDY    39  28  64 SE10      29.83F WCI  32
6HR MIN TEMP:  35; 6HR MAX TEMP:  44;

ELKHART          N/A     51  26  37 S9          N/A
GARDEN CITY    CLOUDY    39  26  59 E8        29.79F
6HR MIN TEMP:  34; 6HR MAX TEMP:  46;

GREAT BEND     CLOUDY    37  26  64 SE10      29.89F WCI  30
LIBERAL        CLOUDY    48  28  46 SE15      29.79F
PRATT          PTCLDY    38  26  61 S15       29.89F WCI  30
6HR MIN TEMP:  33; 6HR MAX TEMP:  41;

$$

KSZ066>073-081>083-090>101-110100-
SOUTHEAST KANSAS

CITY           SKY/WX    TMP DP  RH WIND       PRES   REMARKS
CHANUTE        CLOUDY    41  19  41 S16       30.08F
6HR MIN TEMP:  39; 6HR MAX TEMP:  42;

COFFEYVILLE    CLOUDY    42  20  41 S16       30.10F
6HR MIN TEMP:  41; 6HR MAX TEMP:  43;

HUTCHINSON     CLOUDY    40  25  55 S15       29.96R WCI  32
6HR MIN TEMP:  40; 6HR MAX TEMP:  45;

MEDICINE LODGE   N/A     41  29  62 SE10      29.92F
NEWTON         CLOUDY    37  24  59 S13       29.98S WCI  29
PARSONS        CLOUDY    42  19  39 S9        30.10F
6HR MIN TEMP:  41; 6HR MAX TEMP:  43;

WICHITA INTL   CLOUDY    38  24  57 S13       29.98F WCI  30
6HR MIN TEMP:  38; 6HR MAX TEMP:  46;

WICHITA JABRA  CLOUDY    38  24  57 S15G23    29.98F WCI  29
6HR MIN TEMP:  38; 6HR MAX TEMP:  45;

WICHITA MCCONL CLOUDY    38  24  55 S15       29.98F WCI  30
WINFIELD       CLOUDY    39  24  55 S13       30.03F WCI  31
6HR MIN TEMP:  39; 6HR MAX TEMP:  46;

$$

KSZ007>012-019>026-033>040-048>060-102>105-110100-
NORTHEAST KANSAS

CITY           SKY/WX    TMP DP  RH WIND       PRES   REMARKS
CONCORDIA      CLOUDY    35  23  61 SE10      29.93F WCI  27
6HR MIN TEMP:  31; 6HR MAX TEMP:  39;

EMPORIA        CLOUDY    37  20  50 SE10      30.03F WCI  30
6HR MIN TEMP:  34; 6HR MAX TEMP:  40;

LAWRENCE       CLOUDY    36  21  54 SE9       30.07F
6HR MIN TEMP:  33; 6HR MAX TEMP:  36;

MANHATTAN      CLOUDY    36  21  54 SE7       30.00F
6HR MIN TEMP:  36; 6HR MAX TEMP:  39;

MARYSVILLE     CLOUDY    34  23  64 SE12      30.00F WCI  25
OLATHE IND     CLOUDY    36  19  50 SE13      30.08F WCI  27
6HR MIN TEMP:  33; 6HR MAX TEMP:  36;

OLATHE EXE     CLOUDY    35  19  52 SE8       30.07F
6HR MIN TEMP:  32; 6HR MAX TEMP:  35;

SALINA         CLOUDY    40  24  53 SE15      29.95F WCI  32
6HR MIN TEMP:  39; 6HR MAX TEMP:  43;

TOPEKA BILLARD CLOUDY    37  21  52 SE9       30.06F
6HR MIN TEMP:  34; 6HR MAX TEMP:  37;

TOPEKA FORBES  CLOUDY    37  21  52 SE9       30.04F
6HR MIN TEMP:  34; 6HR MAX TEMP:  38;

$$



USA.gov is the U.S. government's official web portal to all federal, state and local government web resources and services.